sat.trackr.live / text

‹ back to catalog

KUIPER-00215

NORAD 67779 · 2026-030R

PAYLOAD ACTIVE UNKNOWN

§ Identity

Operator
Country
US
Launch date
2026-02-12
Launch site
FRGUI
Launch vehicle
Mass (kg)
RCS (m²)

External: N2YO · Heavens-Above · Gunter

§ Orbital elements

Epoch: 2026-09-20T16:51:17.156160Z

Period
97.30 min
Inclination
51.8992°
Eccentricity
0.0000644
Mean motion
14.79941407 rev/d
Perigee alt
629.1 km
Apogee alt
630.0 km
Semi-major
7,007.6 km
B*
2.8599e-4
RAAN
48.1988°
Arg perigee
112.7999°
Mean anomaly
247.3032°
Rev number
3,437

§ Raw data

KUIPER-002151 67779U 26030R   26263.70228190  .00001960  00000+0  28599-3 0  99962 67779  51.8992  48.1988 0000644 112.7999 247.3032 14.79941407 34376

JSON: /api/v1/satellites/67779 · /tle

For live sub-satellite position, see the globe view (requires WebGL).

§ Visibility from observer

Set your observer location to see the next 7 days of passes ≥ 10°. The values pass through the URL so the page stays shareable.

No JS? Fill the form by hand. The geolocation button needs JavaScript.